DO1SN-13 Weather Reports


time (UTC)temp
C
wind
direction
speed
KPH
gust
KPH
rain 1hr
cm
rain 24hr
cm
rain mn
cm
humidity
%
barometer
mb
20260507011514 12 0 3.2 9.7 0.00 0.00 0.00 1011.7
20260507004457 12 0 3.2 14.5 0.00 0.00 0.00 1011.8
20260507000836 12 0 3.2 14.5 0.00 0.00 0.00 1011.8
20260506233216 12 0 3.2 16.1 0.00 0.00 0.00 1011.7
20260506230159 12 0 3.2 12.9 0.00 0.00 0.00 1011.8
20260506222538 12 0 3.2 12.9 0.00 0.00 0.00 1011.6
20260506221935 12 0 3.2 12.9 0.00 0.00 0.00 1011.7
20260506221331 13 0 3.2 12.9 0.00 0.00 0.00 1011.6
20260506220728 12 0 4.8 12.9 0.00 0.00 0.00 1011.5
20260506220125 13 0 3.2 11.3 0.00 0.00 0.00 1011.5
20260506214918 13 0 4.8 11.3 0.00 0.00 0.00 1011.4
20260506213711 13 0 0.0 9.7 0.00 0.00 0.00 1011.3
20260506213108 14 0 1.6 9.7 0.00 0.00 0.00 1011.1
20260506212504 13 0 1.6 8.0 0.00 0.00 0.00 1011.1
20260506211901 13 0 0.0 8.0 0.00 0.00 0.00 1011.1
20260506211257 14 0 1.6 4.8 0.00 0.00 0.00 1011.1
20260506210654 14 0 0.0 6.4 0.00 0.00 0.00 1010.9
20260506210051 14 0 0.0 6.4 0.00 0.00 0.00 1010.8
20260506205447 14 0 0.0 6.4 0.00 0.00 0.00 1010.8
20260506204845 14 0 0.0 4.8 0.00 0.00 0.00 1010.9
20260506204240 14 0 0.0 4.8 0.00 0.00 0.00 1010.8
20260506203637 13 0 0.0 4.8 0.00 0.00 0.00 1010.9
20260506203033 14 0 0.0 6.4 0.00 0.00 0.00 1010.9
20260506202430 14 0 1.6 6.4 0.00 0.00 0.00 1010.9
20260506201826 13 0 1.6 8.0 0.00 0.00 0.00 1010.2
20260506201223 14 0 0.0 12.9 0.00 0.00 0.00 1010.2
20260506200620 13 0 3.2 12.9 0.00 0.00 0.00 1010.7
20260506200016 13 0 3.2 12.9 0.00 0.00 0.00 1010.6
20260506195413 13 0 1.6 6.4 0.00 0.00 0.00 1010.4
20260506194809 13 0 1.6 6.4 0.00 0.00 0.00 1009.8
20260506194206 13 0 0.0 6.4 0.00 0.00 0.00 1009.7
20260506193603 14 0 1.6 6.4 0.00 0.00 0.00 1010.3
20260506192959 13 0 1.6 6.4 0.00 0.00 0.00 1009.7
20260506192356 13 0 0.0 8.0 0.00 0.00 0.00 1009.8
20260506191752 13 0 1.6 8.0 0.00 0.00 0.00 1010.2
20260506191149 13 0 1.6 8.0 0.00 0.00 0.00 1010.1
20260506190546 13 0 0.0 3.2 0.00 0.00 0.00 1010.1
20260506185942 14 0 0.0 6.4 0.00 0.00 0.00 1009.9
20260506185339 14 0 1.6 11.3 0.00 0.00 0.00 1009.8
20260506184735 14 0 1.6 11.3 0.00 0.00 0.00 1009.8
20260506184132 14 0 3.2 12.9 0.00 0.00 0.00 1009.7
20260506183528 14 0 1.6 12.9 0.00 0.00 0.00 1009.5
20260506181718 14 0 3.2 6.4 0.00 0.00 0.00 1009.3
20260506181115 14 0 1.6 6.4 0.00 0.00 0.00 1009.3
20260506180512 15 0 1.6 4.8 0.00 0.00 0.00 1009.2
20260506175908 14 0 1.6 6.4 0.00 0.00 0.00 1009.0
20260506175306 15 0 1.6 6.4 0.00 0.00 0.00 1009.1
20260506174701 15 0 1.6 6.4 0.00 0.00 0.00 1009.0
20260506174058 18 0 3.2 9.7 0.00 0.00 0.00 1009.1
20260506173454 16 0 3.2 14.5 0.00 0.00 0.00 1009.0
20260506172851 17 0 3.2 14.5 0.00 0.00 0.00 1009.0
20260506172248 15 0 4.8 14.5 0.00 0.00 0.00 1008.9
20260506171644 17 0 3.2 9.7 0.00 0.00 0.00 1008.9
20260506171040 18 0 3.2 9.7 0.00 0.00 0.00 1008.7
20260506165834 20 0 1.6 9.7 0.00 0.00 0.00 1008.3
20260506165230 21 0 1.6 9.7 0.00 0.00 0.00 1008.2
20260506164627 20 0 3.2 14.5 0.00 0.00 0.00 1008.2
20260506163420 15 0 3.2 14.5 0.00 0.00 0.00 1007.8
20260506162213 16 0 1.6 9.7 0.00 0.00 0.00 1008.2
20260506161610 17 0 3.2 6.4 0.00 0.00 0.00 1008.4
20260506161006 18 0 1.6 6.4 0.00 0.00 0.00 1008.3
20260506155800 15 0 1.6 9.7 0.00 0.00 0.00 1008.4
20260506154553 15 0 1.6 12.9 0.00 0.00 0.00 1008.3
20260506153949 15 0 1.6 12.9 0.00 0.00 0.00 1008.4
20260506153346 15 0 3.2 12.9 0.00 0.00 0.00 1008.5
20260506152742 16 0 4.8 11.3 0.00 0.00 0.00 1008.5
20260506151536 21 0 1.6 6.4 0.00 0.00 0.00 1007.3
20260506101848 23 0 1.6 6.4 0.00 0.00 0.00 1008.6
20260506081136 22 0 0.0 3.2 0.00 0.00 0.00 1008.6
20260506071101 19 0 4.8 12.9 0.00 0.00 0.00 1008.8
20260506035712 12 0 3.2 12.9 0.00 0.00 0.00 1009.1
20260506035108 12 0 4.8 14.5 0.00 0.00 0.00 1009.1
20260506033258 12 0 6.4 17.7 0.00 0.00 0.00 1009.3
20260506030845 11 0 6.4 16.1 0.00 0.00 0.00 1009.3
20260506015000 13 0 3.2 11.3 0.00 0.00 0.00 1009.9